Regional Weather Roundup
Issued by NWS

Home | Current Version | Previous Version | Graphics & Text | Print | Product List | Glossary On
Versions: 1 2 3 4 5 6 7 8 9 10 11 12 13 14 15 16 17 18 19 20 21 22 23 24 25 26 27 28 29 30 31 32 33 34 35 36 37 38 39 40 41 42 43 44 45 46 47 48 49 50
000
ASUS45 KSLC 231210
RWRUT

UTAH REGIONAL WEATHER ROUNDUP
NATIONAL WEATHER SERVICE SALT LAKE CITY UT
600 AM MDT FRI JUN 23 2017

UTZ001>011-023>025-231300-

NORTHERN UTAH

CITY           SKY/WX    TMP DP  RH WIND       PRES   REMARKS
BRIGHAM CITY   CLEAR     56  32  39 CALM      30.13R
HILL AFB       CLEAR     57  33  40 E16       30.13R
LOGAN          CLEAR     43  38  82 N3        30.16R
OGDEN          CLEAR     56  35  45 SW5       30.11R
SALT LAKE CITY CLEAR     61  38  42 CALM      30.11R
TOOELE VALLEY  CLEAR     46  32  57 S9        30.14S
WENDOVER         N/A     61  23  23 CALM      30.15S
HEBER CITY     CLEAR     39  34  81 E3        30.19F
WEST JORDAN    CLEAR     57  38  49 SW5       30.14S

$$

UTZ011>015-024>027-231300-

CENTRAL/NORTHEAST UTAH

CITY           SKY/WX    TMP DP  RH WIND       PRES   REMARKS
PROVO AIRPORT  CLEAR     54  36  50 E5        30.15R
MOAB/CANYONLAN CLEAR     61  23  23 CALM      30.04R
DELTA          CLEAR     59  32  36 NW9       30.13S
PRICE          CLEAR     57  24  28 N8        30.16R
RICHFIELD      CLEAR     50  39  66 CALM      30.20R
ROOSEVELT      CLEAR     52  34  50 W3        30.20R
VERNAL         CLEAR     59  36  42 E9        30.18R

$$

UTZ013>016-019>022-027-231300-

SOUTHERN UTAH

CITY           SKY/WX    TMP DP  RH WIND       PRES   REMARKS
BRYCE CANYON   PTCLDY    47  31  53 W10       30.29R
CEDAR CITY     CLEAR     58  28  32 CALM      30.15R
MILFORD        CLEAR     57  23  26 N14       30.13R
ST GEORGE      SUNNY     84  28  13 NE18G30   29.89R
HANKSVILLE     CLEAR     63  23  22 W3        30.08R
KANAB          CLEAR     57  36  44 NE6       30.10R
BLANDING       CLEAR     67  22  18 NE6       30.16R

$$

REGIONAL REPORTS     COLORADO/ARIZONA

CITY           SKY/WX    TMP DP  RH WIND       PRES   REMARKS
CRAIG, CO      CLEAR     46  36  68 W5        30.23R
GRAND JUNCTION CLEAR     67  32  27 N5        30.07R
RIFLE, CO      CLEAR     52  34  50 CALM      30.15R
MONTROSE, CO   CLOUDY    57  35  43 S8        30.15R
CORTEZ, CO     CLEAR     51  38  60 NE5       30.12R
COLORADO CITY    N/A     59  32  36 CALM      30.08R
PAGE, AZ       CLEAR     77  33  20 CALM      29.99R
GRAND CANYON   CLEAR     45  25  45 CALM      30.20S
KINGMAN, AZ    CLEAR     76  48  37 SE9G17    29.92R
FLAGSTAFF, AZ  CLEAR     50  30  46 CALM      30.24R

$$

REGIONAL REPORTS    NEVADA/IDAHO/WYOMING

CITY           SKY/WX    TMP DP  RH WIND       PRES   REMARKS
LAS VEGAS, NV  PTCLDY    92  25   9 NE7       29.79R
ELY, NY        CLEAR     47  22  37 W3        30.25R
ELKO, NV       PTCLDY    44  31  60 S3        30.21R
POCATELLO, ID  CLEAR     44  37  76 NE6       30.21R
BURLEY, ID     CLEAR     47  38  71 S3        30.18S
FORT BRIDGER,    N/A     45  31  58 E10       30.32R
EVANSTON, WY   CLOUDY    49  34  56 E9        30.28R
ROCK SPRINGS,  CLEAR     44  26  49 NE14      30.30S
KEMMERER, WY     N/A     46  27  46 E13G18    30.32R

$$



USA.gov is the U.S. government's official web portal to all federal, state and local government web resources and services.